[[{"header":{"parameterUnit":"m.s-1","parameterCategory":1,"la1":30.2991,"la2":30.254,"lo1":-89.0895,"lo2":-89.0444,"dy":0.0017,"dx":0.0017,"nx":28,"ny":28,"refTime":"2024-08-23T03:00:00:Z","depth":0,"parameterNumber":2,"parameterNumberName":"U-component_of_WINDS"},"data":[0,0,0,0,0,0,0,0,0,0,0,0,0,0,0,0,0,0,0,0,0,0,0,0,0,0,0,0,0,0,0,0,0,0,0,0,0,0,0,0,0,0,0,0,0,0,0,0,0,0,0,0,0,0,0,0,0,0,-6.1102,-6.1102,0,-6.1102,-6.1102,-6.1102,-6.0962,-6.0959,-6.0955,-6.0951,-6.0953,-6.0957,-6.096,0,0,0,0,0,0,0,0,0,0,0,0,0,-6.0983,-6.0986,-6.1102,-6.1102,-6.1102,-6.1102,-6.1102,-6.1102,-6.0963,-6.0958,-6.0954,-6.095,-6.0952,-6.0956,-6.096,0,0,0,0,0,0,0,0,0,0,0,0,0,-6.1014,-6.0987,-6.1102,-6.1032,-6.1026,-6.1102,-6.1102,-6.1102,-6.0964,-6.0958,-6.0953,-6.0948,-6.0951,-6.0956,-6.0961,-6.1104,0,0,-6.0977,-6.0979,0,0,0,0,0,0,0,0,-6.1013,-6.1019,-6.1043,-6.1037,-6.103,-6.1026,-6.1061,-6.1103,-6.0965,-6.0988,-6.0951,-6.0945,-6.0982,-6.0984,-6.0997,-6.1104,-6.1104,-6.0977,-6.0981,-6.0983,-6.0984,0,0,0,0,0,0,0,-6.1011,-6.1018,-6.1102,-6.1043,-6.1036,-6.1002,-6.1,-6.1068,-6.1016,-6.0985,-6.0975,-6.0977,-6.0978,-6.0992,-6.0996,-6.1104,-6.0977,-6.0982,-6.0985,-6.0987,-6.133,-6.1336,0,0,0,0,0,0,-6.1018,-6.1017,-6.1102,-6.1102,-6.1008,-6.1009,-6.1007,-6.1033,-6.1015,-6.1007,-6.0982,-6.097,-6.0986,-6.099,-6.0995,-6.1162,-6.0983,-6.0988,-6.0991,-6.1324,-6.1331,-6.1338,0,0,0,0,0,0,-6.1016,-6.1027,-6.1102,-6.1057,-6.1064,-6.1017,-6.1048,-6.1036,-6.105,-6.1012,-6.1002,-6.1006,-6.0982,-6.0988,-6.1078,-6.116,-6.099,-6.0995,-6.1317,-6.1326,-6.1335,-6.1496,0,0,0,0,0,0,-6.1013,-6.1027,-6.108,-6.1059,-6.1067,-6.1184,-6.1053,-6.104,-6.1059,-6.1045,-6.1032,-6.1024,-6.0978,-6.1071,-6.1083,-6.1164,-6.0999,-6.131,-6.1321,-6.1332,-6.1483,-6.1509,-6.1531,0,0,0,0,0,-6.1009,-6.1125,-6.1083,-6.1094,-6.1132,-6.1189,-6.1194,-6.1137,-6.1067,-6.112,-6.1096,-6.1025,-6.1149,-6.1081,-6.1094,-6.1177,-6.1304,-6.1318,-6.1331,-6.1472,-6.1504,-6.1531,0,0,0,0,0,0,-6.1156,-6.1121,-6.1074,-6.1186,-6.1192,-6.1165,-6.123,-6.1173,-6.1198,-6.1184,-6.1113,-6.1111,-6.1213,-6.1204,-6.1129,-6.1316,-6.1214,-6.1231,-6.1317,-6.1347,-6.1371,-6.137,-6.1003,0,0,0,0,0,-6.1202,-6.1251,-6.1217,-6.132,-6.1325,-6.1278,-6.1301,-6.1257,-6.126,-6.1262,-6.1244,-6.125,-6.1291,-6.1319,-6.1354,-6.1482,-6.1477,-6.1546,-6.157,-6.159,-6.1605,-6.1673,-6.1703,-6.1382,-6.1382,-6.1382,0,0,-6.1296,-6.1283,-6.1318,-6.1349,-6.1348,-6.1401,-6.1281,-6.1342,-6.138,-6.1271,-6.1355,-6.1343,-6.1345,-6.1455,-6.1503,-6.1451,-6.1693,-6.1607,-6.1624,-6.1627,-6.169,-6.172,-6.1748,-6.1391,-6.139,-6.1388,0,0,-6.1495,-6.149,-6.1575,-6.1577,-6.1577,-6.1546,-6.1567,-6.155,-6.1537,-6.1621,-6.154,-6.1586,-6.1657,-6.1662,-6.1675,-6.1879,-6.1815,-6.1893,-6.2019,-6.2087,-6.2112,-6.2134,-6.2207,-6.2234,-6.1908,-6.1909,-6.1909,0,-6.1612,-6.1688,-6.1626,-6.1693,-6.1709,-6.1614,-6.17,-6.1705,-6.1718,-6.1732,-6.1674,-6.1762,-6.1757,-6.1867,-6.1918,-6.1931,-6.1953,-6.1893,-6.2113,-6.2135,-6.2154,-6.2223,-6.2251,-6.1918,-6.1917,-6.1916,-6.1915,0,-6.1832,-6.1886,-6.1955,-6.197,-6.1994,-6.2071,-6.2022,-6.2055,-6.201,-6.1985,-6.2072,-6.2063,-6.2095,-6.2119,-6.2075,-6.2224,-6.2192,-6.2125,-6.2022,-6.2196,-6.2259,-6.2285,-6.1931,-6.1928,-6.1925,-6.1923,0,0,-6.212,-6.2102,-6.2128,-6.2134,-6.2129,-6.217,-6.2244,-6.2275,-6.2305,-6.2318,-6.2377,-6.2441,-6.238,-6.2394,-6.2351,-6.241,-6.2574,-6.2336,-6.2335,-6.238,-6.2738,-6.2788,-6.2819,-6.2532,-6.2537,-6.2541,-6.2738,0,-6.2313,-6.2435,-6.2383,-6.2511,-6.2561,-6.2473,-6.2537,-6.2541,-6.2521,-6.2561,-6.2539,-6.2585,-6.2501,-6.2509,-6.2564,-6.2542,-6.2644,-6.2527,-6.2588,-6.259,-6.2588,-6.2852,-6.2904,-6.309,-6.2762,-6.2766,-6.2769,0,-6.2552,-6.2575,-6.2709,-6.2696,-6.2715,-6.2774,-6.2799,-6.2839,-6.2843,-6.2824,-6.2842,-6.2786,-6.2859,-6.2758,-6.2856,-6.2778,-6.28,-6.2794,-6.28,-6.2802,-6.2689,-6.2861,-6.3148,-6.3176,-6.2808,-6.2805,-6.2802,0,-6.2749,-6.2814,-6.2902,-6.291,-6.2898,-6.2941,-6.2938,-6.2937,-6.296,-6.2983,-6.2998,-6.303,-6.3047,-6.3074,-6.3029,-6.2959,-6.3135,-6.3029,-6.3122,-6.3123,-6.3161,-6.3159,-6.3455,-6.3178,-6.3177,-6.3177,-6.3176,0,-6.2968,-6.3053,-6.299,-6.3044,-6.3138,-6.3078,-6.3173,-6.316,-6.3161,-6.3212,-6.3138,-6.3188,-6.3126,-6.3171,-6.3137,-6.3224,-6.3233,-6.322,-6.321,-6.3226,-6.3228,-6.3238,-6.3224,-6.3184,-6.3182,-6.3181,-6.318,0,-6.3203,-6.3164,-6.3254,-6.3236,-6.3234,-6.3304,-6.3288,-6.3339,-6.3314,-6.338,-6.3392,-6.3354,-6.3403,-6.3362,-6.3409,-6.3386,-6.3503,-6.3474,-6.3501,-6.3493,-6.3587,-6.3579,-6.3899,-6.3939,-6.3637,-6.364,-6.3643,0,-6.3344,-6.3408,-6.3397,-6.3426,-6.3428,-6.3476,-6.3499,-6.3444,-6.3472,-6.3483,-6.3533,-6.3575,-6.3606,-6.3689,-6.3666,-6.3702,-6.3674,-6.3784,-6.3678,-6.3694,-6.3675,-6.3671,-6.3678,-6.3805,-6.3808,-6.3811,-6.3813,0,-6.36,-6.3578,-6.3614,-6.3646,-6.3676,-6.3697,-6.3713,-6.3741,-6.3686,-6.3721,-6.377,-6.3794,-6.3843,-6.3887,-6.3916,-6.3914,-6.3856,-6.3847,-6.387,-6.3887,-6.39,-6.3894,-6.3558,-6.384,-6.3837,-6.3835,-6.3834,-6.3833,-6.3792,-6.3844,-6.3846,-6.3889,-6.3896,-6.3913,-6.396,-6.3942,-6.3982,-6.4017,-6.3983,-6.4043,-6.4048,-6.4081,-6.4087,-6.4133,-6.4088,-6.4121,-6.4129,-6.4138,-6.4152,-6.3894,-6.4139,-6.4138,-6.4137,-6.4136,-6.4136,0,-6.4043,-6.404,-6.4081,-6.4106,-6.4141,-6.4084,-6.4099,-6.4132,-6.4185,-6.4195,-6.4228,-6.4285,-6.4328,-6.431,-6.4348,-6.4389,-6.4363,-6.4401,-6.4396,-6.4397,-6.4191,-6.4167,-6.4421,-6.4421,-6.4421,-6.4421,-6.4421,-6.4421,-6.4178,-6.4264,-6.4244,-6.4333,-6.433,-6.4388,-6.4401,-6.4418,-6.4425,-6.4492,-6.4528,-6.4516,-6.4515,-6.4552,-6.459,-6.4583,-6.4601,-6.4648,-6.4632,-6.444,-6.4411,-6.4385,-6.4362,-6.4652,-6.4653,-6.4834,-6.4836,-6.4837]},{"header":{"parameterUnit":"m.s-1","parameterCategory":1,"la1":30.2991,"la2":30.254,"lo1":-89.0895,"lo2":-89.0444,"dy":0.0017,"dx":0.0017,"nx":28,"ny":28,"refTime":"2024-08-23T03:00:00:Z","depth":0,"parameterNumber":3,"parameterNumberName":"V-component_of_WINDS"},"data":[0,0,0,0,0,0,0,0,0,0,0,0,0,0,0,0,0,0,0,0,0,0,0,0,0,0,0,0,0,0,0,0,0,0,0,0,0,0,0,0,0,0,0,0,0,0,0,0,0,0,0,0,0,0,0,0,0,0,1.1322,1.1323,0,1.1342,1.1343,1.1343,1.1399,1.14,1.1401,1.1403,1.1419,1.1419,1.1418,0,0,0,0,0,0,0,0,0,0,0,0,0,1.133,1.133,1.1322,1.1323,1.1323,1.1342,1.1343,1.1343,1.1399,1.14,1.1402,1.1403,1.142,1.1419,1.1418,0,0,0,0,0,0,0,0,0,0,0,0,0,1.1336,1.133,1.1322,1.1353,1.1356,1.1342,1.1343,1.1343,1.1398,1.14,1.1402,1.1404,1.142,1.1419,1.1418,1.1375,0,0,1.1415,1.1414,0,0,0,0,0,0,0,0,1.1336,1.1336,1.1348,1.1351,1.1354,1.137,1.1352,1.1353,1.1398,1.1382,1.1403,1.1405,1.1401,1.1402,1.1401,1.1375,1.1376,1.1415,1.1414,1.1413,1.1413,0,0,0,0,0,0,0,1.1335,1.1335,1.133,1.1348,1.1352,1.1365,1.1368,1.1352,1.1381,1.1384,1.1388,1.139,1.1403,1.1402,1.1402,1.1376,1.1415,1.1414,1.1413,1.1413,1.1317,1.1315,0,0,0,0,0,0,1.1331,1.1335,1.133,1.1331,1.135,1.1364,1.1367,1.1363,1.1381,1.1386,1.1388,1.1392,1.1403,1.1403,1.1403,1.1354,1.1413,1.1412,1.1412,1.1319,1.1317,1.1315,0,0,0,0,0,0,1.1331,1.133,1.1329,1.1334,1.1335,1.1362,1.1357,1.1362,1.1362,1.1385,1.139,1.1382,1.1405,1.1405,1.1382,1.1356,1.1412,1.1411,1.1321,1.1318,1.1316,1.1256,0,0,0,0,0,0,1.1331,1.133,1.1314,1.1333,1.1334,1.1307,1.1355,1.1362,1.136,1.1366,1.138,1.1385,1.1406,1.1383,1.1381,1.1355,1.141,1.1324,1.132,1.1317,1.126,1.1251,1.1243,0,0,0,0,0,1.1331,1.1295,1.1313,1.1312,1.1315,1.1306,1.1306,1.1333,1.1358,1.1342,1.1357,1.1384,1.1359,1.138,1.1378,1.1352,1.1325,1.1321,1.1317,1.1264,1.1253,1.1244,0,0,0,0,0,0,1.127,1.1298,1.1318,1.1287,1.1294,1.1315,1.1296,1.132,1.1319,1.1324,1.1356,1.1359,1.1332,1.134,1.1363,1.1312,1.1347,1.1342,1.1307,1.1297,1.1289,1.1287,1.1409,0,0,0,0,0,1.1253,1.1244,1.1269,1.1239,1.1242,1.1268,1.1265,1.1285,1.1293,1.1296,1.1309,1.1315,1.1309,1.1303,1.1299,1.1262,1.1266,1.1243,1.1235,1.1228,1.1223,1.1205,1.1195,1.1301,1.1301,1.1301,0,0,1.1217,1.1232,1.1224,1.1227,1.1235,1.1224,1.127,1.1256,1.1249,1.1293,1.1273,1.1283,1.1292,1.1262,1.125,1.1268,1.1195,1.1222,1.1217,1.1215,1.1199,1.1189,1.118,1.1298,1.1298,1.1299,0,0,1.1148,1.1158,1.1135,1.1142,1.1154,1.1172,1.1167,1.1185,1.1194,1.1174,1.1208,1.1199,1.1187,1.1192,1.1193,1.1128,1.1153,1.1125,1.1081,1.1063,1.1055,1.1048,1.1024,1.1015,1.112,1.112,1.112,0,1.1102,1.1088,1.1119,1.1105,1.1105,1.1147,1.1124,1.1129,1.1138,1.1137,1.1158,1.1145,1.1154,1.1126,1.1111,1.111,1.1105,1.1123,1.1054,1.1047,1.104,1.1019,1.101,1.1117,1.1117,1.1118,1.1118,0,1.1031,1.1021,1.1001,1.1011,1.1009,1.099,1.1018,1.1013,1.1034,1.105,1.103,1.1042,1.1041,1.1036,1.1056,1.1012,1.1023,1.1048,1.1084,1.1026,1.1006,1.0998,1.1112,1.1113,1.1114,1.1115,0,0,1.0921,1.095,1.0942,1.0948,1.0965,1.0957,1.094,1.0941,1.0936,1.0941,1.0927,1.0918,1.0942,1.0943,1.0964,1.0948,1.0896,1.0975,1.0976,1.096,1.0848,1.0829,1.0818,1.0913,1.0912,1.091,1.0848,0,1.0855,1.0829,1.0857,1.0825,1.0816,1.0857,1.0842,1.0851,1.0866,1.086,1.0876,1.0869,1.0901,1.0903,1.0889,1.0905,1.0874,1.091,1.09,1.0899,1.0896,1.0808,1.0787,1.0727,1.084,1.0839,1.0838,0,1.0774,1.0777,1.0744,1.0765,1.0762,1.0749,1.0752,1.0747,1.0758,1.077,1.0772,1.0798,1.0783,1.0819,1.0798,1.0822,1.082,1.0827,1.0826,1.0825,1.0864,1.0804,1.0708,1.0699,1.0826,1.0827,1.0827,0,1.0697,1.0693,1.0673,1.0676,1.07,1.069,1.0699,1.0712,1.0711,1.0714,1.0714,1.0714,1.0714,1.0714,1.074,1.0763,1.0716,1.0754,1.0725,1.0724,1.0711,1.0712,1.0613,1.0711,1.0711,1.0711,1.0712,0,1.0619,1.0597,1.0639,1.0627,1.0603,1.0637,1.0613,1.0626,1.0638,1.0628,1.0664,1.0654,1.0688,1.0682,1.0702,1.0682,1.0682,1.0691,1.0696,1.0687,1.0686,1.0685,1.069,1.0709,1.071,1.071,1.071,0,1.0529,1.0556,1.0537,1.0562,1.0568,1.0549,1.057,1.056,1.0578,1.0566,1.0565,1.0593,1.0587,1.0613,1.0612,1.0626,1.0595,1.0608,1.0592,1.0596,1.0565,1.0567,1.0462,1.045,1.0556,1.0555,1.0554,0,1.0477,1.0462,1.0486,1.0483,1.0491,1.0485,1.0485,1.0518,1.0516,1.0528,1.0516,1.0514,1.0514,1.0504,1.0524,1.0523,1.0536,1.0499,1.0536,1.0528,1.0535,1.0536,1.0535,1.0491,1.049,1.0489,1.0488,0,1.0383,1.0398,1.0397,1.0401,1.0401,1.0405,1.0411,1.0407,1.0442,1.0439,1.0435,1.0435,1.0435,1.0433,1.0437,1.0446,1.0472,1.0477,1.047,1.046,1.0452,1.0456,1.057,1.0478,1.0479,1.048,1.0481,1.0481,1.0311,1.0299,1.0315,1.0313,1.0322,1.0328,1.0319,1.0337,1.0335,1.0339,1.0358,1.0351,1.0363,1.0372,1.0378,1.0372,1.039,1.038,1.0377,1.0374,1.0369,1.0453,1.0373,1.0374,1.0374,1.0374,1.0374,0,1.0218,1.0231,1.0229,1.0238,1.0237,1.0264,1.0274,1.027,1.0264,1.0274,1.0274,1.027,1.0268,1.0289,1.029,1.0281,1.0293,1.028,1.0281,1.0282,1.0353,1.0359,1.027,1.027,1.027,1.027,1.027,1.027,1.017,1.0153,1.0169,1.0157,1.0169,1.0163,1.0166,1.0172,1.018,1.0175,1.0174,1.0188,1.0202,1.0205,1.0205,1.0211,1.0209,1.0192,1.0202,1.0267,1.0277,1.0287,1.0293,1.0191,1.0191,1.0132,1.0131,1.0131]}]]